User: anonymous   Login
Location: Newark
(43.0000°N, 1.6781°W)
Time: 03:05:48
(UTC+00:00)
Language:

POLYITAN 1 - Orbit

View from above orbital plane
View from above orbital plane
View from above satellite
View from above satellite

Ground track
Ground track

The orbit data is extracted from the following two-line orbital elements,

1 40042U 14033AJ  22343.83131146  .00003695  00000-0  37260-3 0  9996
2 40042  97.9889 284.2776 0013313 185.7878 174.3188 14.91692426460290
Epoch (UTC): 09 December 2022 19:57:05
Eccentricity: 0.0013313
inclination: 97.9889°
perigee height: 583 km
apogee height: 602 km
right ascension of ascending node: 284.2776°
argument of perigee: 185.7878°
revolutions per day: 14.91692426
mean anomaly at epoch: 174.3188°
orbit number at epoch: 46029

The dashed part of the orbit path shows where the satellite is in the earth's shadow,  

DLR